EW8444 Weather Reports


time (UTC)temp
C
wind
direction
speed
KPH
gust
KPH
rain 1hr
cm
rain 24hr
cm
rain mn
cm
humidity
%
barometer
mb
20260906060924 21 286 0.0 0.0 0.00 0.03 0.00 90 1015.0
20260906060418 21 286 0.0 0.0 0.00 0.03 0.00 90 1015.3
20260906055918 21 286 0.0 0.0 0.00 0.03 0.00 89 1015.4
20260906055424 21 286 0.0 0.0 0.00 0.03 0.00 89 1015.4
20260906054921 21 286 0.0 0.0 0.00 0.03 0.00 89 1015.4
20260906054418 21 286 0.0 0.0 0.00 0.03 0.00 89 1015.6
20260906053918 21 286 0.0 0.0 0.00 0.03 0.00 89 1015.7
20260906053418 21 286 0.0 0.0 0.00 0.03 0.00 89 1015.8
20260906052921 21 286 0.0 0.0 0.00 0.03 0.00 89 1015.8
20260906052418 21 286 0.0 0.0 0.00 0.03 0.00 88 1015.9
20260906051924 21 286 0.0 0.0 0.00 0.03 0.00 88 1015.9
20260906051421 21 286 0.0 0.0 0.00 0.03 0.00 88 1015.9
20260906050918 21 286 0.0 1.6 0.00 0.03 0.00 88 1016.0
20260906050421 21 286 0.0 0.0 0.00 0.03 0.00 88 1015.8
20260906045924 21 286 0.0 0.0 0.00 0.03 0.00 88 1016.0
20260906045421 21 286 0.0 1.6 0.00 0.03 0.00 87 1016.1
20260906044918 22 286 0.0 1.6 0.00 0.03 0.00 88 1016.0
20260906044418 22 286 0.0 0.0 0.00 0.03 0.00 88 1016.0
20260906043918 22 286 0.0 0.0 0.00 0.03 0.00 87 1015.9
20260906043421 22 286 0.0 4.8 0.00 0.03 0.00 87 1015.9
20260906042918 22 286 0.0 0.0 0.03 0.03 0.00 87 1015.8
20260906042418 22 286 0.0 0.0 0.03 0.03 0.00 87 1015.8
20260906041918 22 286 0.0 0.0 0.03 0.03 0.00 87 1015.7
20260906041418 22 286 0.0 0.0 0.03 0.03 0.00 87 1015.9
20260906040918 22 286 0.0 0.0 0.03 0.03 0.00 87 1015.9
20260906040421 22 286 0.0 0.0 0.03 0.03 0.00 87 1015.9
20260906035918 22 286 0.0 0.0 0.03 0.03 0.00 87 1016.0
20260906035418 22 286 0.0 0.0 0.03 0.03 0.00 87 1016.0
20260906034921 22 286 0.0 1.6 0.03 0.03 0.00 87 1016.2
20260906034418 22 286 0.0 3.2 0.03 0.03 0.00 86 1016.3
20260906033927 22 286 0.0 0.0 0.03 0.03 0.00 86 1016.5
20260906033421 22 286 0.0 0.0 0.03 0.03 0.00 86 1016.6
20260906032924 22 286 0.0 0.0 0.00 0.00 0.00 86 1016.7
20260906032421 22 286 0.0 0.0 0.00 0.00 0.00 85 1016.5
20260906031918 22 286 0.0 0.0 0.00 0.00 0.00 85 1016.5
20260906031424 22 286 0.0 0.0 0.00 0.00 0.00 85 1016.5
20260906030921 22 286 0.0 0.0 0.00 0.00 0.00 85 1016.6
20260906030424 22 286 0.0 0.0 0.00 0.00 0.00 85 1016.6
20260906025918 22 286 0.0 0.0 0.00 0.00 0.00 85 1016.6
20260906025421 22 286 0.0 0.0 0.00 0.00 0.00 85 1016.5
20260906024924 22 286 0.0 0.0 0.00 0.00 0.00 85 1016.4
20260906024421 22 286 0.0 0.0 0.00 0.00 0.00 84 1016.4
20260906023921 22 286 0.0 0.0 0.00 0.00 0.00 84 1016.3
20260906023421 22 286 0.0 0.0 0.00 0.00 0.00 83 1016.0
20260906022918 22 286 0.0 0.0 0.00 0.00 0.00 84 1015.9
20260906022418 22 286 0.0 0.0 0.00 0.00 0.00 83 1015.8
20260906021921 22 286 0.0 0.0 0.00 0.00 0.00 83 1015.9
20260906021421 22 286 0.0 0.0 0.00 0.00 0.00 83 1016.0
20260906020918 22 286 0.0 0.0 0.00 0.00 0.00 83 1016.0
20260906020421 23 286 0.0 0.0 0.00 0.00 0.00 83 1015.9
20260906015918 23 286 0.0 0.0 0.00 0.00 0.00 83 1015.8
20260906015418 23 286 0.0 0.0 0.00 0.00 0.00 82 1015.5
20260906014921 23 286 0.0 0.0 0.00 0.00 0.00 82 1015.6
20260906014427 23 286 0.0 0.0 0.00 0.00 0.00 81 1015.7
20260906013921 23 286 0.0 0.0 0.00 0.00 0.00 81 1015.7
20260906013427 23 286 0.0 0.0 0.00 0.00 0.00 80 1015.7
20260906012921 23 286 0.0 0.0 0.00 0.00 0.00 79 1015.6
20260906012418 23 286 0.0 0.0 0.00 0.00 0.00 79 1015.5
20260906011918 24 286 0.0 0.0 0.00 0.00 0.00 79 1015.4
20260906011421 24 286 0.0 0.0 0.00 0.00 0.00 79 1015.2
20260906010918 24 286 0.0 0.0 0.00 0.00 0.00 78 1015.3
20260906010424 24 286 0.0 0.0 0.00 0.00 0.00 78 1015.4
20260906005918 25 286 0.0 0.0 0.00 0.00 0.00 78 1015.3
20260906005424 25 286 0.0 0.0 0.00 0.00 0.00 77 1015.2
20260906004918 25 286 0.0 0.0 0.00 0.00 0.00 77 1015.3
20260906004424 25 286 0.0 0.0 0.00 0.00 0.00 76 1015.2
20260906003921 25 286 0.0 0.0 0.00 0.00 0.00 76 1015.1
20260906003421 25 286 0.0 0.0 0.00 0.00 0.00 75 1015.0
20260906002918 25 286 0.0 0.0 0.00 0.00 0.00 75 1014.8
20260906002427 26 286 0.0 0.0 0.00 0.00 0.00 74 1014.8
20260906001918 26 286 0.0 0.0 0.00 0.00 0.00 74 1014.9
20260906001421 26 286 0.0 0.0 0.00 0.00 0.00 73 1014.8
20260906000927 26 286 0.0 0.0 0.00 0.00 0.00 73 1014.7
20260906000421 26 286 0.0 0.0 0.00 0.00 0.00 72 1014.8
20260905235921 26 286 0.0 0.0 0.00 0.00 0.00 71 1014.7
20260905235421 27 286 0.0 0.0 0.00 0.00 0.00 71 1014.8
20260905234918 27 286 0.0 0.0 0.00 0.00 0.00 70 1014.7
20260905234418 27 286 0.0 0.0 0.00 0.00 0.00 69 1014.6
20260905233921 27 286 0.0 0.0 0.00 0.00 0.00 69 1014.6
20260905233418 27 286 0.0 0.0 0.00 0.00 0.00 68 1014.5
20260905232918 27 286 0.0 1.6 0.00 0.00 0.00 67 1014.4
20260905232418 28 286 0.0 1.6 0.00 0.00 0.00 67 1014.4
20260905231918 28 286 0.0 1.6 0.00 0.00 0.00 66 1014.4
20260905231418 28 286 0.0 0.0 0.00 0.00 0.00 66 1014.2
20260905230918 28 286 0.0 1.6 0.00 0.00 0.00 65 1014.2
20260905230421 28 286 0.0 1.6 0.00 0.00 0.00 65 1014.2
20260905225921 28 286 0.0 3.2 0.00 0.00 0.00 64 1014.1
20260905225424 29 286 0.0 1.6 0.00 0.00 0.00 64 1014.0
20260905224921 29 286 0.0 3.2 0.00 0.00 0.00 63 1014.1
20260905224427 29 286 0.0 1.6 0.00 0.00 0.00 63 1014.1
20260905223918 29 286 0.0 1.6 0.00 0.00 0.00 63 1014.2
20260905223418 29 286 0.0 3.2 0.00 0.00 0.00 62 1014.1
20260905222921 29 286 0.0 3.2 0.00 0.00 0.00 63 1014.1
20260905222424 29 286 3.2 4.8 0.00 0.00 0.00 61 1014.1
20260905221927 29 287 0.0 3.2 0.00 0.00 0.00 61 1014.0
20260905221418 29 287 0.0 1.6 0.00 0.00 0.00 61 1014.1
20260905220918 29 287 0.0 3.2 0.00 0.00 0.00 61 1014.1
20260905220418 29 286 0.0 3.2 0.00 0.00 0.00 60 1014.2
20260905215924 29 286 0.0 3.2 0.00 0.00 0.00 60 1014.2
20260905215424 29 286 1.6 3.2 0.00 0.00 0.00 59 1014.2
20260905214918 29 286 0.0 6.4 0.00 0.00 0.00 59 1014.2
20260905214418 29 291 1.6 4.8 0.00 0.00 0.00 60 1014.2
20260905213924 29 291 1.6 1.6 0.00 0.00 0.00 60 1014.2
20260905213418 29 291 0.0 3.2 0.00 0.00 0.00 60 1014.3
20260905212918 28 291 0.0 3.2 0.00 0.00 0.00 59 1014.5
20260905212421 28 291 0.0 1.6 0.00 0.00 0.00 60 1014.5
20260905211921 28 291 0.0 3.2 0.00 0.00 0.00 59 1014.6
20260905211418 28 291 1.6 4.8 0.00 0.00 0.00 59 1014.5
20260905210921 28 291 1.6 4.8 0.00 0.00 0.00 60 1014.6
20260905210424 28 291 1.6 6.4 0.00 0.00 0.00 60 1014.8
20260905205918 28 291 4.8 4.8 0.00 0.00 0.00 61 1015.0
20260905205421 28 291 1.6 4.8 0.00 0.00 0.00 61 1015.0
20260905204918 28 291 3.2 4.8 0.00 0.00 0.00 62 1014.9
20260905204421 27 286 1.6 4.8 0.00 0.00 0.00 61 1014.8
20260905203921 27 286 0.0 3.2 0.00 0.00 0.00 61 1014.8
20260905203418 27 286 0.0 4.8 0.00 0.00 0.00 60 1014.7
20260905202918 27 286 0.0 4.8 0.00 0.00 0.00 61 1014.7
20260905202418 27 286 1.6 6.4 0.00 0.00 0.00 62 1014.8
20260905201918 27 300 1.6 4.8 0.00 0.00 0.00 63 1014.9
20260905201424 26 302 0.0 3.2 0.00 0.00 0.00 64 1015.0
20260905200918 26 307 1.6 3.2 0.00 0.00 0.00 63 1015.2
20260905200418 26 307 0.0 3.2 0.00 0.00 0.00 64 1015.2
20260905195918 26 307 0.0 6.4 0.00 0.00 0.00 65 1015.2
20260905195418 26 331 4.8 6.4 0.00 0.00 0.00 64 1015.3
20260905194921 25 331 3.2 3.2 0.00 0.00 0.00 68 1015.4
20260905194418 25 331 4.8 6.4 0.00 0.00 0.00 68 1015.5
20260905193918 25 331 0.0 4.8 0.00 0.00 0.00 70 1015.5
20260905193418 24 331 3.2 4.8 0.00 0.00 0.00 70 1015.6
20260905192921 24 331 1.6 4.8 0.00 0.00 0.00 70 1015.7
20260905192424 24 331 0.0 4.8 0.00 0.00 0.00 70 1015.7
20260905191924 24 331 3.2 3.2 0.00 0.00 0.00 72 1015.7
20260905191421 24 331 1.6 3.2 0.00 0.00 0.00 72 1015.8
20260905190918 24 331 0.0 0.0 0.00 0.00 0.00 74 1015.7
20260905190424 24 331 0.0 0.0 0.00 0.00 0.00 74 1015.7
20260905185921 23 331 0.0 1.6 0.00 0.00 0.00 73 1015.8
20260905185418 23 331 0.0 1.6 0.00 0.00 0.00 72 1015.8
20260905184918 23 331 1.6 3.2 0.00 0.00 0.00 73 1015.8
20260905184424 23 331 1.6 6.4 0.00 0.00 0.00 72 1015.8
20260905183918 23 331 1.6 3.2 0.00 0.00 0.00 72 1015.7
20260905183424 24 331 1.6 4.8 0.00 0.00 0.00 72 1015.8
20260905182918 24 331 3.2 6.4 0.00 0.00 0.00 72 1015.8
20260905182418 25 335 4.8 6.4 0.00 0.00 0.00 71 1015.7
20260905181918 25 316 8.0 8.0 0.00 0.00 0.00 70 1015.6
20260905181421 25 292 0.0 1.6 0.00 0.00 0.00 69 1015.7
20260905180918 26 292 0.0 1.6 0.00 0.00 0.00 66 1015.8
20260905180418 26 293 0.0 3.2 0.00 0.00 0.00 66 1016.1
20260905175921 26 292 1.6 4.8 0.00 0.00 0.00 63 1016.4
20260905175418 27 355 0.0 9.7 0.00 0.00 0.00 60 1016.6
20260905174918 28 86 9.7 11.3 0.00 0.00 0.00 56 1016.3
20260905174418 29 49 1.6 8.0 0.00 0.00 0.00 52 1016.2
20260905173918 30 76 3.2 16.1 0.00 0.00 0.00 50 1016.0
20260905173418 31 310 1.6 11.3 0.00 0.00 0.00 50 1015.6
20260905172927 32 29 3.2 12.9 0.00 0.00 0.00 56 1015.4
20260905172418 32 350 1.6 12.9 0.00 0.00 0.00 54 1015.2
20260905171921 32 324 3.2 11.3 0.00 0.00 0.00 54 1015.6
20260905171424 32 338 3.2 9.7 0.00 0.00 0.00 56 1015.4
20260905170918 32 96 3.2 8.0 0.00 0.00 0.00 55 1015.5
20260905170418 32 314 3.2 6.4 0.00 0.00 0.00 56 1015.3
20260905165921 32 319 4.8 8.0 0.00 0.00 0.00 56 1015.1
20260905165424 31 54 3.2 11.3 0.00 0.00 0.00 55 1015.0
20260905164921 31 0 3.2 4.8 0.00 0.00 0.00 55 1015.0
20260905164418 31 9 1.6 8.0 0.00 0.00 0.00 56 1015.2
20260905163918 31 315 0.0 12.9 0.00 0.00 0.00 56 1015.4
20260905163418 31 348 1.6 6.4 0.00 0.00 0.00 58 1015.5
20260905162921 31 86 0.0 4.8 0.00 0.00 0.00 58 1015.5
20260905162418 31 19 3.2 8.0 0.00 0.00 0.00 58 1015.7
20260905161918 31 349 4.8 6.4 0.00 0.00 0.00 59 1015.9
20260905161421 30 140 1.6 6.4 0.00 0.00 0.00 63 1015.8
20260905160918 30 123 0.0 6.4 0.00 0.00 0.00 61 1015.8
20260905160418 30 118 1.6 9.7 0.00 0.00 0.00 63 1015.8
20260905155924 30 146 3.2 4.8 0.00 0.00 0.00 63 1015.9
20260905155418 30 0 1.6 6.4 0.00 0.00 0.00 63 1016.0
20260905154918 30 335 4.8 9.7 0.00 0.00 0.00 64 1016.2
20260905154418 29 340 3.2 11.3 0.00 0.00 0.00 64 1016.1
20260905153918 29 336 6.4 11.3 0.00 0.00 0.00 65 1016.1
20260905153424 28 306 0.0 4.8 0.00 0.00 0.00 66 1016.0
20260905152918 28 302 4.8 4.8 0.00 0.00 0.00 69 1016.0
20260905152418 28 302 0.0 3.2 0.00 0.00 0.00 71 1015.8
20260905151924 28 302 3.2 6.4 0.00 0.00 0.00 71 1015.8
20260905151418 27 271 4.8 4.8 0.00 0.00 0.00 72 1015.7
20260905150921 27 259 0.0 1.6 0.00 0.00 0.00 75 1015.8
20260905150418 27 259 0.0 3.2 0.00 0.00 0.00 77 1015.8
20260905145918 26 259 0.0 3.2 0.00 0.00 0.00 79 1015.8
20260905145418 26 259 0.0 1.6 0.00 0.00 0.00 80 1015.8
20260905144924 26 259 1.6 1.6 0.00 0.00 0.00 80 1015.9
20260905144424 26 259 0.0 3.2 0.00 0.00 0.00 82 1015.9
20260905143918 25 259 0.0 3.2 0.00 0.00 0.00 82 1016.0
20260905143421 25 259 0.0 1.6 0.00 0.00 0.00 84 1016.0
20260905142924 25 259 0.0 0.0 0.00 0.00 0.00 85 1016.1
20260905142418 24 259 1.6 1.6 0.00 0.00 0.00 86 1016.1
20260905141918 24 259 0.0 0.0 0.00 0.00 0.00 87 1016.1
20260905141418 23 259 0.0 1.6 0.00 0.00 0.00 88 1016.1
20260905140918 23 259 0.0 3.2 0.00 0.00 0.00 89 1016.2
20260905140418 23 259 1.6 1.6 0.00 0.00 0.00 90 1016.1
20260905135924 23 259 0.0 1.6 0.00 0.00 0.00 91 1016.1
20260905135418 22 259 0.0 1.6 0.00 0.00 0.00 91 1016.2
20260905134918 22 259 0.0 1.6 0.00 0.00 0.00 92 1016.3
20260905134418 22 259 0.0 0.0 0.00 0.00 0.00 92 1016.3
20260905133918 22 259 0.0 1.6 0.00 0.00 0.00 92 1016.4
20260905133418 22 259 0.0 0.0 0.00 0.00 0.00 93 1016.4
20260905132921 22 259 0.0 0.0 0.00 0.00 0.00 92 1016.5
20260905132421 22 259 0.0 0.0 0.00 0.00 0.00 93 1016.6
20260905131918 22 259 0.0 1.6 0.00 0.00 0.00 93 1016.7
20260905131418 21 259 0.0 1.6 0.00 0.00 0.00 93 1016.9
20260905130918 21 259 0.0 1.6 0.00 0.00 0.00 93 1016.9
20260905130418 21 259 1.6 1.6 0.00 0.00 0.00 93 1016.9
20260905125921 21 259 0.0 0.0 0.00 0.00 0.00 93 1016.9
20260905125421 21 259 0.0 0.0 0.00 0.00 0.00 93 1017.0
20260905124918 21 259 0.0 0.0 0.00 0.00 0.00 93 1017.0
20260905124427 21 259 0.0 0.0 0.00 0.00 0.00 93 1017.0
20260905123918 21 259 0.0 1.6 0.00 0.00 0.00 93 1016.9
20260905123418 21 259 0.0 3.2 0.00 0.00 0.00 93 1016.9
20260905122918 20 259 0.0 3.2 0.00 0.00 0.00 93 1016.9
20260905122421 20 259 0.0 0.0 0.00 0.00 0.00 93 1017.0
20260905121924 20 259 0.0 0.0 0.00 0.00 0.00 93 1017.0
20260905121424 20 259 0.0 1.6 0.00 0.00 0.00 92 1017.0
20260905120918 20 259 0.0 0.0 0.00 0.00 0.00 92 1016.9
20260905120418 20 259 0.0 0.0 0.00 0.00 0.00 92 1017.0
20260905115918 20 259 0.0 0.0 0.00 0.00 0.00 92 1016.9
20260905115421 20 259 0.0 0.0 0.00 0.00 0.00 92 1016.9
20260905114921 20 259 0.0 0.0 0.00 0.00 0.00 92 1016.7
20260905114418 20 259 0.0 0.0 0.00 0.00 0.00 92 1016.7
20260905113921 20 259 0.0 1.6 0.00 0.00 0.00 91 1016.7
20260905113421 20 259 0.0 0.0 0.00 0.00 0.00 92 1016.7
20260905112918 20 259 0.0 0.0 0.00 0.00 0.00 92 1016.7
20260905112421 20 259 0.0 0.0 0.00 0.00 0.00 92 1016.6
20260905111918 20 259 0.0 1.6 0.00 0.00 0.00 92 1016.6
20260905111427 20 259 0.0 0.0 0.00 0.00 0.00 91 1016.5
20260905110918 20 259 0.0 0.0 0.00 0.00 0.00 91 1016.4
20260905110418 20 259 0.0 0.0 0.00 0.00 0.00 91 1016.4
20260905105918 20 259 0.0 0.0 0.00 0.00 0.00 91 1016.4
20260905105418 20 259 0.0 0.0 0.00 0.00 0.00 91 1016.2
20260905104918 20 259 0.0 0.0 0.00 0.00 0.00 91 1016.2
20260905104421 20 259 0.0 0.0 0.00 0.00 0.00 91 1016.3
20260905103921 20 259 0.0 0.0 0.00 0.00 0.00 91 1016.3
20260905103418 20 259 0.0 0.0 0.00 0.00 0.00 91 1016.2
20260905102921 20 259 0.0 0.0 0.00 0.00 0.00 91 1016.1
20260905102418 20 259 0.0 0.0 0.00 0.00 0.00 91 1016.1
20260905101924 20 259 0.0 0.0 0.00 0.00 0.00 91 1016.2
20260905101421 20 259 0.0 0.0 0.00 0.00 0.00 91 1016.2
20260905100921 20 259 0.0 0.0 0.00 0.00 0.00 91 1016.1
20260905100424 20 259 0.0 0.0 0.00 0.00 0.00 91 1016.1
20260905095921 20 259 0.0 0.0 0.00 0.00 0.00 91 1016.2
20260905095418 20 259 0.0 0.0 0.00 0.00 0.00 91 1016.2
20260905094918 20 259 0.0 0.0 0.00 0.00 0.00 91 1016.2
20260905094418 20 259 0.0 0.0 0.00 0.00 0.00 91 1016.2
20260905093918 20 259 0.0 0.0 0.00 0.00 0.00 91 1016.3
20260905093418 20 259 0.0 0.0 0.00 0.00 0.00 91 1016.4
20260905092918 20 259 0.0 0.0 0.00 0.00 0.00 91 1016.3
20260905092421 20 259 0.0 0.0 0.00 0.00 0.00 91 1016.4
20260905091918 20 259 0.0 0.0 0.00 0.00 0.00 91 1016.4
20260905091418 21 259 0.0 0.0 0.00 0.00 0.00 91 1016.5
20260905090924 21 259 0.0 0.0 0.00 0.00 0.00 91 1016.5
20260905090418 21 259 0.0 0.0 0.00 0.00 0.00 91 1016.6
20260905085918 21 259 0.0 0.0 0.00 0.00 0.00 91 1016.6
20260905085418 21 259 0.0 0.0 0.00 0.00 0.00 90 1016.6
20260905084921 21 259 0.0 0.0 0.00 0.00 0.00 90 1016.7
20260905084424 21 259 0.0 0.0 0.00 0.00 0.00 90 1016.8
20260905083918 21 259 0.0 0.0 0.00 0.00 0.00 90 1016.9
20260905083418 21 259 0.0 0.0 0.00 0.00 0.00 90 1017.0
20260905082924 21 259 0.0 0.0 0.00 0.00 0.00 90 1017.0
20260905082424 21 259 0.0 0.0 0.00 0.00 0.00 90 1016.9
20260905081918 21 259 0.0 0.0 0.00 0.00 0.00 90 1017.0
20260905081418 21 259 0.0 0.0 0.00 0.00 0.00 90 1017.1
20260905080918 21 259 0.0 0.0 0.00 0.00 0.00 90 1017.1
20260905080424 21 259 0.0 0.0 0.00 0.00 0.00 90 1017.2
20260905075924 21 259 0.0 0.0 0.00 0.00 0.00 90 1017.4
20260905075421 21 259 0.0 0.0 0.00 0.00 0.00 89 1017.3
20260905074921 21 259 0.0 0.0 0.00 0.00 0.00 88 1017.5
20260905074418 21 259 0.0 0.0 0.00 0.00 0.00 88 1017.5
20260905073918 21 259 0.0 0.0 0.00 0.00 0.00 88 1017.6
20260905073418 21 259 0.0 0.0 0.00 0.00 0.00 88 1017.5
20260905072921 21 259 0.0 0.0 0.00 0.00 0.00 88 1017.5
20260905072418 21 259 0.0 0.0 0.00 0.00 0.00 88 1017.6
20260905071921 21 259 0.0 0.0 0.00 0.00 0.00 88 1017.7
20260905071418 21 259 0.0 0.0 0.00 0.00 0.00 88 1017.6
20260905070921 21 259 0.0 0.0 0.00 0.00 0.00 88 1017.6
20260905070421 21 259 0.0 0.0 0.00 0.00 0.00 88 1017.7
20260905065924 21 259 0.0 0.0 0.00 0.00 0.00 88 1017.8
20260905065421 21 259 0.0 0.0 0.00 0.00 0.00 88 1018.0
20260905064918 21 259 0.0 0.0 0.00 0.00 0.00 88 1018.0
20260905064418 21 259 0.0 0.0 0.00 0.00 0.00 88 1018.0
20260905063918 21 259 0.0 0.0 0.00 0.00 0.00 88 1018.1
20260905063421 21 259 0.0 0.0 0.00 0.00 0.00 88 1018.0
20260905062921 21 259 0.0 0.0 0.00 0.00 0.00 88 1018.1
20260905062418 21 259 0.0 0.0 0.00 0.00 0.00 87 1018.2
20260905061918 21 259 0.0 0.0 0.00 0.00 0.00 87 1018.3
20260905061424 21 259 0.0 0.0 0.00 0.00 0.00 87 1018.4